Home   Weather   Denver   Past weeks

Flag for USA Past Weather in Denver, Colorado, USA — Yesterday and Last 2 Weeks

Now
13 °F

Passing clouds.


Feels Like: 13 °F
Forecast: 2 / 15 °F
Wind: No wind

Location: Buckley Air Force Base

Current Time: Dec 7, 2016 at 3:58:01 am

Latest Report: Dec 7, 2016 at 2:58 am


Visibility: 10 mi

Pressure: 30.04 "Hg (24.41 "Hg at 1593m altitude)

Humidity: 93%

Dew Point: 11 °F

Location of DenverLocation

Past Weather in Denver — Graph

°F

Denver Temperature Yesterday

Maximum temperature yesterday: 27 °F (at 10:58 am)
Minimum temperature yesterday: 9 °F (at 4:58 am)
Average temperature yesterday: 16 °F

High & Low Weather Summary for the Past Weeks

 TemperatureHumidityPressure
High62 °F (Nov 25, 2:58 pm)100% (Nov 22, 5:58 am)30.39 "Hg (Nov 22, 5:58 am)
Low9 °F (Dec 6, 4:58 am)6% (Nov 25, 1:58 pm)29.20 "Hg (Nov 27, 12:58 pm)
Average33 °F48%29.92 "Hg
* Reported Nov 22 2:58 am — Dec 7 2:58 am, Denver, Weather by CustomWeather, © 2016

Note: Actual official high and low records may vary slightly from our data, if they occured in-between our weather recording intervals... More about our weather records

Advertising

Denver Weather History for the Previous 24 Hours

Scroll right to see more
 ConditionsComfort  
Time TempWeatherWind HumidityBarometerVisibility
2:58 am
Wed, Dec 7
13 °FPassing clouds.No wind93%30.04 "Hg10 mi
1:58 am13 °FLight snow. Mostly cloudy.No wind92%30.03 "Hg10 mi
12:58 am15 °FLight snow. Ice fog.3 mph92%30.00 "Hg3 mi
11:58 pm
Tue, Dec 6
16 °FLight snow. Ice fog.5 mph91%29.98 "Hg1 mi
10:58 pm17 °FLight snow. Ice fog.7 mph86%29.96 "Hg2 mi
9:58 pm16 °FLight snow. Ice fog.13 mph86%29.93 "Hg2 mi
8:58 pm18 °FLight snow. Overcast.12 mph66%29.97 "Hg7 mi
7:58 pm19 °FOvercast.12 mph54%29.93 "Hg10 mi
6:58 pm20 °FMostly cloudy.9 mph37%29.99 "Hg10 mi
5:58 pm22 °FMostly cloudy.10 mph33%29.98 "Hg10 mi
4:58 pm23 °FOvercast.13 mph40%29.96 "Hg10 mi
10:58 am27 °FPassing clouds.8 mph36%29.99 "Hg10 mi
9:58 am24 °FPassing clouds.13 mph40%30.02 "Hg10 mi
8:58 am19 °FPassing clouds.17 mph46%30.04 "Hg10 mi
7:58 am17 °FPassing clouds.16 mph46%30.05 "Hg10 mi
6:58 am9 °FPassing clouds.10 mph57%30.07 "Hg10 mi
5:58 am9 °FPassing clouds.9 mph59%30.07 "Hg10 mi
4:58 am9 °FPassing clouds.9 mph61%30.06 "Hg10 mi
3:58 am9 °FPassing clouds.9 mph59%30.04 "Hg10 mi
Weather by CustomWeather, © 2016

See weather overviewHow to use our weather pages